Tracking 26257 objects as of 4-Oct-2022
HD Live streaming from Space Station
objects crossing your sky now

SHIJIAN-15 (SJ-15)

Track SHIJIAN-15 (SJ-15) now!
10-day predictions
SHIJIAN-15 (SJ-15) is classified as:


NORAD ID: 39210
Int'l Code: 2013-037C
Perigee: 668.9 km
Apogee: 680.0 km
Inclination: 98.0 °
Period: 98.1 minutes
Semi major axis: 7045 km
RCS: Unknown
Launch date: July 19, 2013
Source: People's Republic of China (PRC)
Launch site: Taiyaun Space Center, China (TSC)

SHIJIAN 15 is a technology satellite, precise mission unknown at present.
aabbcc
Your satellite tracking list
Your tracking list is empty




NASA's NSSDC Master Catalog

Two Line Element Set (TLE):
1 39210U 13037C   22276.93921177  .00000612  00000-0  11501-3 0  9997
2 39210  98.0495 272.5154 0007906 118.5579 241.6423 14.68050202495701
Source of the keplerian elements: AFSPC